Weather in Kondrakovo

Russia / Ivanovo Oblast     57°23′57″N   42°31′51″E
temp.,
°C
wind,
m/s
gust,
m/s
humid.,
%
clouds,
%
prec.,
mm/h
press.,
hPa
HPBL,
m
16 october, sat
sat1600:00+3sw4128898 0.0 1015468
03:00+5ssw41187100 0.0 1013650
06:00+5ssw51288100 0.0 1013601
09:00+6ssw51384100 0.0 1012648
12:00+8ssw61480100 0.0 1011775
15:00+8ssw61474100 0.0 1010912
18:00+9sw61469100 0.0 10091289
21:00+7sw61388100 1.3 10091499
17 october, sun
sun1700:00+6wsw498452 0.7 1010796
03:00+4sw411875 0.7 1010487
06:00+4sw412885 0.0 1010464
09:00+5sw513835 0.0 1010664
12:00+8sw51073100 0.0 10101042
15:00+8sw51073100 0.0 10091209
18:00+7sw497998 0.1 1009879
21:00+7sw4983100 0.1 1009969
18 october, mon
mon1800:00+7wsw4983100 0.3 1009810
03:00+5sw399199 0.4 1008377
06:00+4sw3989100 0.0 1008350
09:00+5ssw3887100 0.4 1006987
12:00+7sw4983100 0.9 10051175
15:00+6sw51091100 2.1 10031221
18:00+2w3997100 3.1 1005372
21:00+1wsw4119211 3.1 1006457
19 october, tue
tue1900:00+1wsw399635 0.0 1007358
03:000wsw389795 0.0 1007358
06:00+1w3796100 0.1 1008609
09:00+2wsw3799100 0.4 1009328
12:00+2wnw378299 0.1 1010889
15:00+3wnw3783100 0.1 1011725
18:00+2nw2787100 0.1 1013425
21:00+2nw3889100 0.2 1014407
20 october, wed
wed2000:000nw389499 0.1 1015319
03:00−2nw279780 0.1 1016209
06:00−2nw27955 0.0 1018219
09:000nw36805 0.0 1019397
12:00+2wnw35615 0.0 10201015
15:00+2w356298 0.0 10201185
18:000wsw258648 0.1 1020130
21:00−1ssw3888100 0.1 1019280